Location: Ceske Budejovice
(48.9830°N, 14.4670°E)
Time: 20:03:42
(UTC+02:00)

ISS - Pass Details

Date: 29 March 2019
Orbit: 408 x 410 km, 51.6° (Epoch: 22 April)

Event Time Altitude Azimuth Distance (km) Brightness Sun altitude
Rises 21:41:33 0° 290° (WNW) 2,339 0.9 -28.8°
Reaches altitude 10° 21:43:39 10° 289° (WNW) 1,475 -0.3 -29.0°
Enters shadow 21:44:07 13° 289° (WNW) 1,286 -0.6 -29.1°
